date,time,SUV Intensity [MED/Hr],UV Index,Daily total [MED],Since Last [MED]
29/09/2022,00:00:55,0.000,0.0,0.0,0.0
29/09/2022,00:01:54,-0.001,0.0,0.0,0.0
29/09/2022,00:02:55,0.000,0.0,0.0,0.0
29/09/2022,00:03:55,0.000,0.0,0.0,0.0
29/09/2022,00:04:55,0.000,0.0,0.0,0.0
29/09/2022,00:05:55,0.000,0.0,0.0,0.0
29/09/2022,00:06:55,-0.001,0.0,0.0,0.0
29/09/2022,00:07:55,0.000,0.0,0.0,0.0
29/09/2022,00:08:55,-0.000,0.0,0.0,0.0
29/09/2022,00:09:54,-0.000,0.0,0.0,0.0
29/09/2022,00:10:55,0.000,0.0,0.0,0.0
29/09/2022,00:11:55,0.000,0.0,0.0,0.0
29/09/2022,00:12:55,0.000,0.0,0.0,0.0
29/09/2022,00:13:55,-0.000,0.0,0.0,0.0
29/09/2022,00:14:55,0.000,0.0,0.0,0.0
29/09/2022,00:15:56,0.000,0.0,0.0,0.0
29/09/2022,00:16:55,0.000,0.0,0.0,0.0
29/09/2022,00:17:54,0.000,0.0,0.0,0.0
29/09/2022,00:18:55,0.000,0.0,0.0,0.0
29/09/2022,00:19:54,0.000,0.0,0.0,0.0
29/09/2022,00:20:55,0.000,0.0,0.0,0.0
29/09/2022,00:21:54,-0.000,0.0,0.0,0.0
29/09/2022,00:22:54,0.000,0.0,0.0,0.0
29/09/2022,00:23:55,-0.001,0.0,0.0,0.0
29/09/2022,00:24:55,-0.000,0.0,0.0,0.0
29/09/2022,00:25:55,-0.001,0.0,0.0,0.0
29/09/2022,00:26:55,-0.000,0.0,0.0,0.0
29/09/2022,00:27:55,-0.000,0.0,0.0,0.0
29/09/2022,00:28:55,-0.000,0.0,0.0,0.0
29/09/2022,00:29:55,-0.000,0.0,0.0,0.0
29/09/2022,00:30:55,0.000,0.0,0.0,0.0
29/09/2022,00:31:55,0.000,0.0,0.0,0.0
29/09/2022,00:32:55,0.000,0.0,0.0,0.0
29/09/2022,00:33:54,-0.000,0.0,0.0,0.0
29/09/2022,00:34:55,-0.000,0.0,0.0,0.0
29/09/2022,00:35:55,-0.000,0.0,0.0,0.0
29/09/2022,00:36:54,-0.000,0.0,0.0,0.0
29/09/2022,00:37:55,0.000,0.0,0.0,0.0
29/09/2022,00:38:55,-0.000,0.0,0.0,0.0
29/09/2022,00:39:55,-0.000,0.0,0.0,0.0
29/09/2022,00:40:55,-0.000,0.0,0.0,0.0
29/09/2022,00:41:55,-0.000,0.0,0.0,0.0
29/09/2022,00:42:54,-0.000,0.0,0.0,0.0
29/09/2022,00:43:54,-0.000,0.0,0.0,0.0
29/09/2022,00:44:55,-0.000,0.0,0.0,0.0
29/09/2022,00:45:55,-0.000,0.0,0.0,0.0
29/09/2022,00:46:54,-0.001,0.0,0.0,0.0
29/09/2022,00:47:55,-0.001,0.0,0.0,0.0
29/09/2022,00:48:55,0.000,0.0,0.0,0.0
29/09/2022,00:49:55,-0.000,0.0,0.0,0.0
29/09/2022,00:50:55,-0.000,0.0,0.0,0.0
29/09/2022,00:51:54,0.000,0.0,0.0,0.0
29/09/2022,00:52:55,-0.001,0.0,0.0,0.0
29/09/2022,00:53:55,-0.000,0.0,0.0,0.0
29/09/2022,00:54:55,-0.000,0.0,0.0,0.0
29/09/2022,00:55:55,-0.000,0.0,0.0,0.0
29/09/2022,00:56:55,-0.000,0.0,0.0,0.0
29/09/2022,00:57:55,0.000,0.0,0.0,0.0
29/09/2022,00:58:55,-0.001,0.0,0.0,0.0
29/09/2022,00:59:54,-0.000,0.0,0.0,0.0
29/09/2022,01:00:55,-0.001,0.0,0.0,0.0
29/09/2022,01:01:55,0.000,0.0,0.0,0.0
29/09/2022,01:02:54,-0.000,0.0,0.0,0.0
29/09/2022,01:03:55,-0.000,0.0,0.0,0.0
29/09/2022,01:04:55,-0.001,0.0,0.0,0.0
29/09/2022,01:05:55,0.000,0.0,0.0,0.0
29/09/2022,01:06:55,-0.001,0.0,0.0,0.0
29/09/2022,01:07:55,0.000,0.0,0.0,0.0
29/09/2022,01:08:55,-0.000,0.0,0.0,0.0
29/09/2022,01:09:55,0.000,0.0,0.0,0.0
29/09/2022,01:10:55,-0.001,0.0,0.0,0.0
29/09/2022,01:11:55,-0.000,0.0,0.0,0.0
29/09/2022,01:12:54,-0.000,0.0,0.0,0.0
29/09/2022,01:13:55,0.000,0.0,0.0,0.0
29/09/2022,01:14:54,-0.000,0.0,0.0,0.0
29/09/2022,01:15:55,-0.000,0.0,0.0,0.0
29/09/2022,01:16:55,-0.000,0.0,0.0,0.0
29/09/2022,01:17:55,-0.001,0.0,0.0,0.0
29/09/2022,01:18:55,-0.001,0.0,0.0,0.0
29/09/2022,01:19:55,-0.001,0.0,0.0,0.0
29/09/2022,01:20:55,-0.000,0.0,0.0,0.0
29/09/2022,01:21:54,-0.000,0.0,0.0,0.0
29/09/2022,01:22:55,-0.000,0.0,0.0,0.0
29/09/2022,01:23:55,0.000,0.0,0.0,0.0
29/09/2022,01:24:55,-0.001,0.0,0.0,0.0
29/09/2022,01:25:55,0.000,0.0,0.0,0.0
29/09/2022,01:26:55,-0.001,0.0,0.0,0.0
29/09/2022,01:27:55,-0.001,0.0,0.0,0.0
29/09/2022,01:28:55,-0.001,0.0,0.0,0.0
29/09/2022,01:29:55,-0.000,0.0,0.0,0.0
29/09/2022,01:30:55,-0.000,0.0,0.0,0.0
29/09/2022,01:31:55,-0.001,0.0,0.0,0.0
29/09/2022,01:32:55,-0.000,0.0,0.0,0.0
29/09/2022,01:33:55,-0.000,0.0,0.0,0.0
29/09/2022,01:34:55,0.000,0.0,0.0,0.0
29/09/2022,01:35:55,-0.001,0.0,0.0,0.0
29/09/2022,01:36:54,-0.001,0.0,0.0,0.0
29/09/2022,01:37:55,-0.001,0.0,0.0,0.0
29/09/2022,01:38:58,-0.001,0.0,0.0,0.0
29/09/2022,01:39:56,-0.000,0.0,0.0,0.0
29/09/2022,01:40:55,-0.000,0.0,0.0,0.0
29/09/2022,01:41:55,-0.000,0.0,0.0,0.0
29/09/2022,01:42:55,-0.000,0.0,0.0,0.0
29/09/2022,01:43:55,-0.001,0.0,0.0,0.0
29/09/2022,01:44:55,-0.001,0.0,0.0,0.0
29/09/2022,01:45:55,0.000,0.0,0.0,0.0
29/09/2022,01:46:55,-0.000,0.0,0.0,0.0
29/09/2022,01:47:55,-0.000,0.0,0.0,0.0
29/09/2022,01:48:55,-0.001,0.0,0.0,0.0
29/09/2022,01:49:55,0.000,0.0,0.0,0.0
29/09/2022,01:50:55,0.000,0.0,0.0,0.0
29/09/2022,01:51:55,-0.001,0.0,0.0,0.0
29/09/2022,01:52:55,-0.000,0.0,0.0,0.0
29/09/2022,01:53:55,0.000,0.0,0.0,0.0
29/09/2022,01:54:55,-0.001,0.0,0.0,0.0
29/09/2022,01:55:55,-0.000,0.0,0.0,0.0
29/09/2022,01:56:55,-0.000,0.0,0.0,0.0
29/09/2022,01:57:55,0.000,0.0,0.0,0.0
29/09/2022,01:58:55,-0.000,0.0,0.0,0.0
29/09/2022,01:59:55,0.000,0.0,0.0,0.0
29/09/2022,02:00:55,0.000,0.0,0.0,0.0
29/09/2022,02:01:55,0.000,0.0,0.0,0.0
29/09/2022,02:02:55,0.000,0.0,0.0,0.0
29/09/2022,02:03:55,0.000,0.0,0.0,0.0
29/09/2022,02:04:55,-0.001,0.0,0.0,0.0
29/09/2022,02:05:55,-0.000,0.0,0.0,0.0
29/09/2022,02:06:55,-0.000,0.0,0.0,0.0
29/09/2022,02:07:55,-0.000,0.0,0.0,0.0
29/09/2022,02:08:55,-0.000,0.0,0.0,0.0
29/09/2022,02:09:55,-0.001,0.0,0.0,0.0
29/09/2022,02:10:55,-0.000,0.0,0.0,0.0
29/09/2022,02:11:55,-0.001,0.0,0.0,0.0
29/09/2022,02:12:55,-0.001,0.0,0.0,0.0
29/09/2022,02:13:55,0.000,0.0,0.0,0.0
29/09/2022,02:14:55,-0.001,0.0,0.0,0.0
29/09/2022,02:15:55,-0.000,0.0,0.0,0.0
29/09/2022,02:16:55,-0.001,0.0,0.0,0.0
29/09/2022,02:17:55,-0.001,0.0,0.0,0.0
29/09/2022,02:18:55,-0.000,0.0,0.0,0.0
29/09/2022,02:19:55,0.000,0.0,0.0,0.0
29/09/2022,02:20:55,-0.000,0.0,0.0,0.0
29/09/2022,02:21:55,0.001,0.0,0.0,0.0
29/09/2022,02:22:55,-0.001,0.0,0.0,0.0
29/09/2022,02:23:55,-0.000,0.0,0.0,0.0
29/09/2022,02:24:55,-0.000,0.0,0.0,0.0
29/09/2022,02:25:55,-0.000,0.0,0.0,0.0
29/09/2022,02:26:54,-0.000,0.0,0.0,0.0
29/09/2022,02:27:55,-0.000,0.0,0.0,0.0
29/09/2022,02:28:55,-0.000,0.0,0.0,0.0
29/09/2022,02:29:54,-0.001,0.0,0.0,0.0
29/09/2022,02:30:55,0.000,0.0,0.0,0.0
29/09/2022,02:31:55,-0.000,0.0,0.0,0.0
29/09/2022,02:32:55,0.000,0.0,0.0,0.0
29/09/2022,02:33:55,0.000,0.0,0.0,0.0
29/09/2022,02:34:55,0.000,0.0,0.0,0.0
29/09/2022,02:35:55,-0.001,0.0,0.0,0.0
29/09/2022,02:36:55,-0.001,0.0,0.0,0.0
29/09/2022,02:37:55,0.000,0.0,0.0,0.0
29/09/2022,02:38:55,0.000,0.0,0.0,0.0
29/09/2022,02:39:55,0.000,0.0,0.0,0.0
29/09/2022,02:40:55,-0.000,0.0,0.0,0.0
29/09/2022,02:41:55,0.000,0.0,0.0,0.0
29/09/2022,02:42:55,0.000,0.0,0.0,0.0
29/09/2022,02:43:56,0.000,0.0,0.0,0.0
29/09/2022,02:44:55,0.000,0.0,0.0,0.0
29/09/2022,02:45:55,0.000,0.0,0.0,0.0
29/09/2022,02:46:55,0.000,0.0,0.0,0.0
29/09/2022,02:47:55,0.000,0.0,0.0,0.0
29/09/2022,02:48:55,0.000,0.0,0.0,0.0
29/09/2022,02:49:55,-0.000,0.0,0.0,0.0
29/09/2022,02:50:55,0.000,0.0,0.0,0.0
29/09/2022,02:51:55,0.000,0.0,0.0,0.0
29/09/2022,02:52:55,0.000,0.0,0.0,0.0
29/09/2022,02:53:55,0.000,0.0,0.0,0.0
29/09/2022,02:54:55,0.000,0.0,0.0,0.0
29/09/2022,02:55:55,0.000,0.0,0.0,0.0
29/09/2022,02:56:55,0.000,0.0,0.0,0.0
29/09/2022,02:57:55,0.000,0.0,0.0,0.0
29/09/2022,02:58:55,0.000,0.0,0.0,0.0
29/09/2022,02:59:55,0.000,0.0,0.0,0.0
29/09/2022,03:00:55,0.000,0.0,0.0,0.0
29/09/2022,03:01:55,-0.001,0.0,0.0,0.0
29/09/2022,03:02:55,0.000,0.0,0.0,0.0
29/09/2022,03:03:55,0.000,0.0,0.0,0.0
29/09/2022,03:04:55,0.000,0.0,0.0,0.0
29/09/2022,03:05:55,-0.001,0.0,0.0,0.0
29/09/2022,03:06:55,0.000,0.0,0.0,0.0
29/09/2022,03:07:55,0.000,0.0,0.0,0.0
29/09/2022,03:08:55,0.000,0.0,0.0,0.0
29/09/2022,03:09:55,-0.001,0.0,0.0,0.0
29/09/2022,03:10:55,0.000,0.0,0.0,0.0
29/09/2022,03:11:55,0.000,0.0,0.0,0.0
29/09/2022,03:12:55,0.001,0.0,0.0,0.0
29/09/2022,03:13:55,0.000,0.0,0.0,0.0
29/09/2022,03:14:55,0.000,0.0,0.0,0.0
29/09/2022,03:15:55,0.000,0.0,0.0,0.0
29/09/2022,03:16:55,0.000,0.0,0.0,0.0
29/09/2022,03:17:55,0.000,0.0,0.0,0.0
29/09/2022,03:18:55,0.000,0.0,0.0,0.0
29/09/2022,03:19:55,0.000,0.0,0.0,0.0
29/09/2022,03:20:55,0.000,0.0,0.0,0.0
29/09/2022,03:21:55,-0.001,0.0,0.0,0.0
29/09/2022,03:22:55,0.000,0.0,0.0,0.0
29/09/2022,03:23:55,0.000,0.0,0.0,0.0
29/09/2022,03:24:55,0.000,0.0,0.0,0.0
29/09/2022,03:25:55,0.000,0.0,0.0,0.0
29/09/2022,03:26:55,0.000,0.0,0.0,0.0
29/09/2022,03:27:55,0.000,0.0,0.0,0.0
29/09/2022,03:28:55,0.000,0.0,0.0,0.0
29/09/2022,03:29:55,0.000,0.0,0.0,0.0
29/09/2022,03:30:56,0.000,0.0,0.0,0.0
29/09/2022,03:31:55,0.000,0.0,0.0,0.0
29/09/2022,03:32:56,-0.001,0.0,0.0,0.0
29/09/2022,03:33:55,0.000,0.0,0.0,0.0
29/09/2022,03:34:56,0.000,0.0,0.0,0.0
29/09/2022,03:35:55,0.000,0.0,0.0,0.0
29/09/2022,03:36:55,-0.001,0.0,0.0,0.0
29/09/2022,03:37:56,0.000,0.0,0.0,0.0
29/09/2022,03:38:55,0.000,0.0,0.0,0.0
29/09/2022,03:39:55,0.000,0.0,0.0,0.0
29/09/2022,03:40:55,-0.001,0.0,0.0,0.0
29/09/2022,03:41:56,0.000,0.0,0.0,0.0
29/09/2022,03:42:55,0.000,0.0,0.0,0.0
29/09/2022,03:43:56,0.000,0.0,0.0,0.0
29/09/2022,03:44:55,0.000,0.0,0.0,0.0
29/09/2022,03:45:55,0.000,0.0,0.0,0.0
29/09/2022,03:46:55,0.000,0.0,0.0,0.0
29/09/2022,03:47:55,0.000,0.0,0.0,0.0
29/09/2022,03:48:55,0.000,0.0,0.0,0.0
29/09/2022,03:49:55,0.000,0.0,0.0,0.0
29/09/2022,03:50:55,0.000,0.0,0.0,0.0
29/09/2022,03:51:55,0.000,0.0,0.0,0.0
29/09/2022,03:52:56,0.000,0.0,0.0,0.0
29/09/2022,03:53:55,0.000,0.0,0.0,0.0
29/09/2022,03:54:55,0.000,0.0,0.0,0.0
29/09/2022,03:55:55,-0.001,0.0,0.0,0.0
29/09/2022,03:56:55,-0.001,0.0,0.0,0.0
29/09/2022,03:57:56,-0.001,0.0,0.0,0.0
29/09/2022,03:58:55,0.000,0.0,0.0,0.0
29/09/2022,03:59:56,-0.000,0.0,0.0,0.0
29/09/2022,04:00:55,0.000,0.0,0.0,0.0
29/09/2022,04:01:55,0.000,0.0,0.0,0.0
29/09/2022,04:02:55,-0.000,0.0,0.0,0.0
29/09/2022,04:03:56,0.000,0.0,0.0,0.0
29/09/2022,04:04:55,0.000,0.0,0.0,0.0
29/09/2022,04:05:55,0.000,0.0,0.0,0.0
29/09/2022,04:06:55,0.000,0.0,0.0,0.0
29/09/2022,04:07:55,0.000,0.0,0.0,0.0
29/09/2022,04:08:55,-0.000,0.0,0.0,0.0
29/09/2022,04:09:55,-0.000,0.0,0.0,0.0
29/09/2022,04:10:55,0.000,0.0,0.0,0.0
29/09/2022,04:11:55,0.000,0.0,0.0,0.0
29/09/2022,04:12:56,0.000,0.0,0.0,0.0
29/09/2022,04:13:55,0.000,0.0,0.0,0.0
29/09/2022,04:14:55,0.000,0.0,0.0,0.0
29/09/2022,04:15:56,-0.000,0.0,0.0,0.0
29/09/2022,04:16:55,-0.001,0.0,0.0,0.0
29/09/2022,04:17:55,0.000,0.0,0.0,0.0
29/09/2022,04:18:55,-0.000,0.0,0.0,0.0
29/09/2022,04:19:55,0.000,0.0,0.0,0.0
29/09/2022,04:20:55,0.000,0.0,0.0,0.0
29/09/2022,04:21:55,0.001,0.0,0.0,0.0
29/09/2022,04:22:55,-0.000,0.0,0.0,0.0
29/09/2022,04:23:56,0.000,0.0,0.0,0.0
29/09/2022,04:24:55,0.000,0.0,0.0,0.0
29/09/2022,04:25:55,-0.000,0.0,0.0,0.0
29/09/2022,04:26:55,0.000,0.0,0.0,0.0
29/09/2022,04:27:55,0.000,0.0,0.0,0.0
29/09/2022,04:28:55,-0.001,0.0,0.0,0.0
29/09/2022,04:29:56,0.000,0.0,0.0,0.0
29/09/2022,04:30:55,-0.001,0.0,0.0,0.0
29/09/2022,04:31:55,0.000,0.0,0.0,0.0
29/09/2022,04:32:55,0.000,0.0,0.0,0.0
29/09/2022,04:33:55,0.000,0.0,0.0,0.0
29/09/2022,04:34:56,0.000,0.0,0.0,0.0
29/09/2022,04:35:55,0.000,0.0,0.0,0.0
29/09/2022,04:36:55,-0.001,0.0,0.0,0.0
29/09/2022,04:37:55,0.000,0.0,0.0,0.0
29/09/2022,04:38:56,0.000,0.0,0.0,0.0
29/09/2022,04:39:55,0.000,0.0,0.0,0.0
29/09/2022,04:40:55,0.000,0.0,0.0,0.0
29/09/2022,04:41:55,0.000,0.0,0.0,0.0
29/09/2022,04:42:55,0.000,0.0,0.0,0.0
29/09/2022,04:43:55,0.000,0.0,0.0,0.0
29/09/2022,04:44:55,0.000,0.0,0.0,0.0
29/09/2022,04:45:56,0.000,0.0,0.0,0.0
29/09/2022,04:46:55,0.000,0.0,0.0,0.0
29/09/2022,04:47:55,0.000,0.0,0.0,0.0
29/09/2022,04:48:55,0.000,0.0,0.0,0.0
29/09/2022,04:49:55,0.000,0.0,0.0,0.0
29/09/2022,04:50:55,0.000,0.0,0.0,0.0
29/09/2022,04:51:55,0.000,0.0,0.0,0.0
29/09/2022,04:52:55,0.000,0.0,0.0,0.0
29/09/2022,04:53:55,0.000,0.0,0.0,0.0
29/09/2022,04:54:55,0.000,0.0,0.0,0.0
29/09/2022,04:55:55,0.000,0.0,0.0,0.0
29/09/2022,04:56:55,0.000,0.0,0.0,0.0
29/09/2022,04:57:55,0.000,0.0,0.0,0.0
29/09/2022,04:58:56,0.000,0.0,0.0,0.0
29/09/2022,04:59:55,0.000,0.0,0.0,0.0
29/09/2022,05:00:55,0.000,0.0,0.0,0.0
29/09/2022,05:01:55,0.000,0.0,0.0,0.0
29/09/2022,05:02:55,0.000,0.0,0.0,0.0
29/09/2022,05:03:55,-0.001,0.0,0.0,0.0
29/09/2022,05:04:55,0.000,0.0,0.0,0.0
29/09/2022,05:05:56,0.000,0.0,0.0,0.0
29/09/2022,05:06:55,0.000,0.0,0.0,0.0
29/09/2022,05:07:55,0.000,0.0,0.0,0.0
29/09/2022,05:08:56,0.000,0.0,0.0,0.0
29/09/2022,05:09:55,-0.001,0.0,0.0,0.0
29/09/2022,05:10:55,0.000,0.0,0.0,0.0
29/09/2022,05:11:56,0.000,0.0,0.0,0.0
29/09/2022,05:12:55,0.000,0.0,0.0,0.0
29/09/2022,05:13:55,0.000,0.0,0.0,0.0
29/09/2022,05:14:56,0.000,0.0,0.0,0.0
29/09/2022,05:15:55,-0.001,0.0,0.0,0.0
29/09/2022,05:16:56,0.000,0.0,0.0,0.0
29/09/2022,05:17:55,0.000,0.0,0.0,0.0
29/09/2022,05:18:55,0.000,0.0,0.0,0.0
29/09/2022,05:19:55,0.000,0.0,0.0,0.0
29/09/2022,05:20:56,0.000,0.0,0.0,0.0
29/09/2022,05:21:55,-0.001,0.0,0.0,0.0
29/09/2022,05:22:55,0.000,0.0,0.0,0.0
29/09/2022,05:23:55,0.000,0.0,0.0,0.0
29/09/2022,05:24:56,0.000,0.0,0.0,0.0
29/09/2022,05:25:56,0.000,0.0,0.0,0.0
29/09/2022,05:26:55,-0.001,0.0,0.0,0.0
29/09/2022,05:27:56,0.000,0.0,0.0,0.0
29/09/2022,05:28:55,-0.001,0.0,0.0,0.0
29/09/2022,05:29:55,-0.001,0.0,0.0,0.0
29/09/2022,05:30:55,-0.000,0.0,0.0,0.0
29/09/2022,05:31:56,0.000,0.0,0.0,0.0
29/09/2022,05:32:55,0.000,0.0,0.0,0.0
29/09/2022,05:33:55,0.000,0.0,0.0,0.0
29/09/2022,05:34:56,0.000,0.0,0.0,0.0
29/09/2022,05:35:57,0.000,0.0,0.0,0.0
29/09/2022,05:36:56,0.000,0.0,0.0,0.0
29/09/2022,05:37:55,-0.001,0.0,0.0,0.0
29/09/2022,05:38:55,-0.001,0.0,0.0,0.0
29/09/2022,05:39:56,0.000,0.0,0.0,0.0
29/09/2022,05:40:55,0.000,0.0,0.0,0.0
29/09/2022,05:41:55,0.000,0.0,0.0,0.0
29/09/2022,05:42:56,0.000,0.0,0.0,0.0
29/09/2022,05:43:56,0.000,0.0,0.0,0.0
29/09/2022,05:44:56,-0.001,0.0,0.0,0.0
29/09/2022,05:45:55,0.000,0.0,0.0,0.0
29/09/2022,05:46:55,0.000,0.0,0.0,0.0
29/09/2022,05:47:56,0.000,0.0,0.0,0.0
29/09/2022,05:48:55,0.000,0.0,0.0,0.0
29/09/2022,05:49:55,0.000,0.0,0.0,0.0
29/09/2022,05:50:56,0.000,0.0,0.0,0.0
29/09/2022,05:51:55,0.000,0.0,0.0,0.0
29/09/2022,05:52:57,0.001,0.0,0.0,0.0
29/09/2022,05:53:55,0.000,0.0,0.0,0.0
29/09/2022,05:54:55,0.001,0.0,0.0,0.0
29/09/2022,05:55:56,0.001,0.0,0.0,0.0
29/09/2022,05:56:55,0.001,0.0,0.0,0.0
29/09/2022,05:57:55,0.002,0.0,0.0,0.0
29/09/2022,05:58:55,0.001,0.0,0.0,0.0
29/09/2022,05:59:56,0.000,0.0,0.0,0.0
29/09/2022,06:00:55,0.001,0.0,0.0,0.0
29/09/2022,06:01:55,0.001,0.0,0.0,0.0
29/09/2022,06:02:56,0.002,0.0,0.0,0.0
29/09/2022,06:03:55,0.002,0.0,0.0,0.0
29/09/2022,06:04:55,0.001,0.0,0.0,0.0
29/09/2022,06:05:55,0.002,0.0,0.0,0.0
29/09/2022,06:06:55,0.002,0.0,0.0,0.0
29/09/2022,06:07:55,0.003,0.0,0.0,0.0
29/09/2022,06:08:56,0.003,0.0,0.0,0.0
29/09/2022,06:09:55,0.003,0.0,0.0,0.0
29/09/2022,06:10:55,0.003,0.0,0.0,0.0
29/09/2022,06:11:55,0.003,0.0,0.0,0.0
29/09/2022,06:12:55,0.003,0.0,0.0,0.0
29/09/2022,06:13:56,0.004,0.0,0.0,0.0
29/09/2022,06:14:55,0.004,0.0,0.0,0.0
29/09/2022,06:15:55,0.005,0.0,0.0,0.0
29/09/2022,06:16:56,0.005,0.0,0.0,0.0
29/09/2022,06:17:55,0.006,0.0,0.0,0.0
29/09/2022,06:18:55,0.007,0.0,0.0,0.0
29/09/2022,06:19:55,0.007,0.0,0.0,0.0
29/09/2022,06:20:55,0.007,0.0,0.0,0.0
29/09/2022,06:21:56,0.008,0.0,0.0,0.0
29/09/2022,06:22:55,0.008,0.0,0.001,0.001
29/09/2022,06:23:55,0.008,0.0,0.001,0.0
29/09/2022,06:24:55,0.009,0.0,0.001,0.0
29/09/2022,06:25:55,0.009,0.0,0.001,0.0
29/09/2022,06:26:53,0.009,0.0,0.001,0.0
29/09/2022,06:27:55,0.010,0.0,0.001,0.0
29/09/2022,06:28:55,0.010,0.0,0.001,0.0
29/09/2022,06:29:55,0.010,0.0,0.002,0.001
29/09/2022,06:30:55,0.011,0.0,0.002,0.0
29/09/2022,06:31:55,0.012,0.0,0.002,0.0
29/09/2022,06:32:56,0.011,0.0,0.002,0.0
29/09/2022,06:33:55,0.012,0.0,0.002,0.0
29/09/2022,06:34:56,0.013,0.0,0.003,0.001
29/09/2022,06:35:55,0.013,0.0,0.003,0.0
29/09/2022,06:36:55,0.013,0.0,0.003,0.0
29/09/2022,06:37:56,0.015,0.0,0.003,0.0
29/09/2022,06:40:12,0.015,0.0,0.004,0.001
29/09/2022,06:40:56,0.016,0.0,0.004,0.0
29/09/2022,06:41:55,0.015,0.0,0.004,0.0
29/09/2022,06:42:56,0.016,0.0,0.004,0.0
29/09/2022,06:43:56,0.016,0.0,0.005,0.001
29/09/2022,06:44:55,0.016,0.0,0.005,0.0
29/09/2022,06:45:55,0.016,0.0,0.005,0.0
29/09/2022,06:46:55,0.017,0.0,0.006,0.001
29/09/2022,06:47:56,0.017,0.0,0.006,0.0
29/09/2022,06:48:55,0.018,0.0,0.006,0.0
29/09/2022,06:49:56,0.018,0.0,0.006,0.0
29/09/2022,06:50:56,0.019,0.0,0.007,0.001
29/09/2022,06:51:55,0.019,0.0,0.007,0.0
29/09/2022,06:52:56,0.021,0.0,0.007,0.0
29/09/2022,06:53:56,0.021,0.0,0.008,0.001
29/09/2022,06:54:55,0.023,0.0,0.008,0.0
29/09/2022,06:55:55,0.022,0.0,0.008,0.0
29/09/2022,06:56:56,0.024,0.0,0.009,0.001
29/09/2022,06:57:55,0.023,0.0,0.009,0.0
29/09/2022,06:58:56,0.024,0.0,0.01,0.001
29/09/2022,06:59:55,0.023,0.0,0.01,0.0
29/09/2022,07:00:55,0.023,0.0,0.01,0.0
29/09/2022,07:01:55,0.024,0.0,0.011,0.001
29/09/2022,07:02:55,0.025,0.0,0.011,0.0
29/09/2022,07:03:55,0.025,0.0,0.012,0.001
29/09/2022,07:04:56,0.026,0.0,0.012,0.0
29/09/2022,07:05:56,0.026,0.0,0.012,0.0
29/09/2022,07:06:55,0.028,0.0,0.013,0.001
29/09/2022,07:07:55,0.029,0.0,0.013,0.0
29/09/2022,07:08:56,0.030,0.0,0.014,0.001
29/09/2022,07:09:55,0.031,0.0,0.014,0.0
29/09/2022,07:10:55,0.031,0.0,0.015,0.001
29/09/2022,07:11:55,0.031,0.0,0.015,0.0
29/09/2022,07:12:56,0.032,0.0,0.016,0.001
29/09/2022,07:13:55,0.034,0.0,0.017,0.001
29/09/2022,07:14:55,0.034,0.0,0.017,0.0
29/09/2022,07:15:56,0.035,0.0,0.018,0.001
29/09/2022,07:16:55,0.035,0.0,0.018,0.0
29/09/2022,07:17:56,0.036,0.0,0.019,0.001
29/09/2022,07:18:55,0.036,0.0,0.019,0.0
29/09/2022,07:19:55,0.037,0.0,0.02,0.001
29/09/2022,07:20:56,0.036,0.0,0.021,0.001
29/09/2022,07:21:55,0.037,0.0,0.021,0.0
29/09/2022,07:22:55,0.039,0.0,0.022,0.001
29/09/2022,07:23:56,0.040,0.0,0.023,0.001
29/09/2022,07:24:55,0.042,0.0,0.023,0.0
29/09/2022,07:25:55,0.044,0.0,0.024,0.001
29/09/2022,07:26:56,0.047,0.0,0.025,0.001
29/09/2022,07:27:55,0.051,0.0,0.026,0.001
29/09/2022,07:28:55,0.051,0.0,0.026,0.0
29/09/2022,07:29:56,0.054,0.0,0.027,0.001
29/09/2022,07:30:56,0.055,0.0,0.028,0.001
29/09/2022,07:31:54,0.057,0.0,0.029,0.001
29/09/2022,07:32:56,0.059,0.0,0.03,0.001
29/09/2022,07:33:55,0.062,0.0,0.031,0.001
29/09/2022,07:34:55,0.064,0.0,0.032,0.001
29/09/2022,07:35:56,0.067,0.0,0.033,0.001
29/09/2022,07:36:56,0.068,0.0,0.034,0.001
29/09/2022,07:37:55,0.073,0.0,0.036,0.002
29/09/2022,07:38:56,0.074,0.0,0.037,0.001
29/09/2022,07:39:56,0.074,0.0,0.038,0.001
29/09/2022,07:40:56,0.070,0.0,0.039,0.001
29/09/2022,07:41:56,0.070,0.0,0.04,0.001
29/09/2022,07:42:56,0.074,0.0,0.042,0.002
29/09/2022,07:43:55,0.076,0.0,0.043,0.001
29/09/2022,07:44:55,0.077,0.0,0.044,0.001
29/09/2022,07:45:56,0.078,0.0,0.045,0.001
29/09/2022,07:46:55,0.080,0.0,0.047,0.002
29/09/2022,07:47:55,0.083,0.0,0.048,0.001
29/09/2022,07:48:56,0.082,0.0,0.05,0.002
29/09/2022,07:49:55,0.080,0.0,0.051,0.001
29/09/2022,07:50:55,0.076,0.0,0.052,0.001
29/09/2022,07:51:56,0.073,0.0,0.053,0.001
29/09/2022,07:52:56,0.073,0.0,0.055,0.002
29/09/2022,07:53:55,0.076,0.0,0.056,0.001
29/09/2022,07:54:55,0.082,0.0,0.057,0.001
29/09/2022,07:55:56,0.087,0.0,0.059,0.002
29/09/2022,07:56:56,0.085,0.0,0.06,0.001
29/09/2022,07:57:55,0.085,0.0,0.061,0.001
29/09/2022,07:58:55,0.085,0.0,0.063,0.002
29/09/2022,07:59:56,0.082,0.0,0.064,0.001
29/09/2022,08:00:55,0.080,0.0,0.066,0.002
29/09/2022,08:01:55,0.077,0.0,0.067,0.001
29/09/2022,08:02:56,0.074,0.0,0.068,0.001
29/09/2022,08:03:56,0.072,0.0,0.069,0.001
29/09/2022,08:04:56,0.072,0.0,0.071,0.002
29/09/2022,08:05:56,0.076,0.0,0.072,0.001
29/09/2022,08:06:55,0.083,0.0,0.073,0.001
29/09/2022,08:07:55,0.093,0.0,0.075,0.002
29/09/2022,08:08:56,0.099,0.0,0.076,0.001
29/09/2022,08:09:57,0.102,0.0,0.078,0.002
29/09/2022,08:10:55,0.106,0.0,0.08,0.002
29/09/2022,08:11:56,0.114,0.0,0.081,0.001
29/09/2022,08:12:55,0.120,0.0,0.083,0.002
29/09/2022,08:13:55,0.123,0.0,0.085,0.002
29/09/2022,08:14:55,0.125,0.0,0.088,0.003
29/09/2022,08:15:56,0.134,0.0,0.09,0.002
29/09/2022,08:16:55,0.145,0.0,0.092,0.002
29/09/2022,08:17:55,0.156,0.0,0.095,0.003
29/09/2022,08:18:56,0.164,0.0,0.097,0.002
29/09/2022,08:19:56,0.170,0.0,0.1,0.003
29/09/2022,08:20:56,0.173,0.0,0.103,0.003
29/09/2022,08:21:56,0.178,0.0,0.106,0.003
29/09/2022,08:22:56,0.178,0.0,0.109,0.003
29/09/2022,08:23:59,0.181,0.0,0.112,0.003
29/09/2022,08:24:59,0.178,0.0,0.115,0.003
29/09/2022,08:25:57,0.173,0.0,0.118,0.003
29/09/2022,08:26:56,0.170,0.0,0.121,0.003
29/09/2022,08:27:56,0.172,0.0,0.123,0.002
29/09/2022,08:28:55,0.176,0.0,0.126,0.003
29/09/2022,08:29:55,0.185,0.0,0.129,0.003
29/09/2022,08:30:56,0.193,0.0,0.132,0.003
29/09/2022,08:31:55,0.199,0.0,0.136,0.004
29/09/2022,08:32:55,0.204,0.0,0.139,0.003
29/09/2022,08:33:56,0.215,0.0,0.143,0.004
29/09/2022,08:34:56,0.221,1.0,0.146,0.003
29/09/2022,08:35:56,0.224,1.0,0.15,0.004
29/09/2022,08:36:55,0.227,1.0,0.154,0.004
29/09/2022,08:37:55,0.232,1.0,0.158,0.004
29/09/2022,08:38:56,0.233,1.0,0.161,0.003
29/09/2022,08:39:55,0.230,1.0,0.165,0.004
29/09/2022,08:40:55,0.222,1.0,0.169,0.004
29/09/2022,08:41:55,0.208,0.0,0.173,0.004
29/09/2022,08:42:56,0.188,0.0,0.176,0.003
29/09/2022,08:43:55,0.166,0.0,0.179,0.003
29/09/2022,08:44:55,0.150,0.0,0.181,0.002
29/09/2022,08:45:56,0.143,0.0,0.184,0.003
29/09/2022,08:46:55,0.140,0.0,0.186,0.002
29/09/2022,08:47:56,0.146,0.0,0.189,0.003
29/09/2022,08:48:55,0.155,0.0,0.191,0.002
29/09/2022,08:49:56,0.160,0.0,0.194,0.003
29/09/2022,08:50:55,0.155,0.0,0.196,0.002
29/09/2022,08:51:56,0.159,0.0,0.199,0.003
29/09/2022,08:52:56,0.167,0.0,0.202,0.003
29/09/2022,08:53:56,0.171,0.0,0.205,0.003
29/09/2022,08:54:56,0.184,0.0,0.207,0.002
29/09/2022,08:55:56,0.189,0.0,0.211,0.004
29/09/2022,08:56:56,0.188,0.0,0.214,0.003
29/09/2022,08:57:56,0.199,0.0,0.217,0.003
29/09/2022,08:58:56,0.221,1.0,0.22,0.003
29/09/2022,08:59:56,0.244,1.0,0.224,0.004
29/09/2022,09:00:56,0.258,1.0,0.228,0.004
29/09/2022,09:01:55,0.269,1.0,0.233,0.005
29/09/2022,09:02:56,0.270,1.0,0.237,0.004
29/09/2022,09:03:56,0.265,1.0,0.242,0.005
29/09/2022,09:04:56,0.262,1.0,0.246,0.004
29/09/2022,09:05:55,0.269,1.0,0.251,0.005
29/09/2022,09:06:55,0.276,1.0,0.255,0.004
29/09/2022,09:07:56,0.291,1.0,0.26,0.005
29/09/2022,09:08:56,0.305,1.0,0.265,0.005
29/09/2022,09:09:56,0.306,1.0,0.27,0.005
29/09/2022,09:10:56,0.293,1.0,0.275,0.005
29/09/2022,09:11:56,0.279,1.0,0.28,0.005
29/09/2022,09:12:56,0.277,1.0,0.284,0.004
29/09/2022,09:13:56,0.282,1.0,0.289,0.005
29/09/2022,09:14:55,0.277,1.0,0.294,0.005
29/09/2022,09:15:56,0.274,1.0,0.298,0.004
29/09/2022,09:16:55,0.278,1.0,0.303,0.005
29/09/2022,09:17:55,0.281,1.0,0.308,0.005
29/09/2022,09:18:55,0.270,1.0,0.312,0.004
29/09/2022,09:19:55,0.236,1.0,0.316,0.004
29/09/2022,09:20:56,0.191,0.0,0.32,0.004
29/09/2022,09:21:56,0.183,0.0,0.323,0.003
29/09/2022,09:22:56,0.207,0.0,0.326,0.003
29/09/2022,09:23:56,0.203,0.0,0.33,0.004
29/09/2022,09:24:56,0.182,0.0,0.333,0.003
29/09/2022,09:25:55,0.173,0.0,0.336,0.003
29/09/2022,09:26:55,0.182,0.0,0.339,0.003
29/09/2022,09:27:56,0.167,0.0,0.342,0.003
29/09/2022,09:28:55,0.155,0.0,0.344,0.002
29/09/2022,09:29:56,0.179,0.0,0.347,0.003
29/09/2022,09:30:55,0.173,0.0,0.35,0.003
29/09/2022,09:31:55,0.150,0.0,0.353,0.003
29/09/2022,09:32:56,0.148,0.0,0.355,0.002
29/09/2022,09:33:55,0.149,0.0,0.358,0.003
29/09/2022,09:34:55,0.163,0.0,0.36,0.002
29/09/2022,09:35:56,0.189,0.0,0.363,0.003
29/09/2022,09:36:55,0.219,1.0,0.367,0.004
29/09/2022,09:37:55,0.240,1.0,0.371,0.004
29/09/2022,09:38:55,0.231,1.0,0.374,0.003
29/09/2022,09:39:56,0.219,1.0,0.378,0.004
29/09/2022,09:40:56,0.226,1.0,0.382,0.004
29/09/2022,09:41:55,0.235,1.0,0.386,0.004
29/09/2022,09:42:55,0.236,1.0,0.39,0.004
29/09/2022,09:43:56,0.227,1.0,0.394,0.004
29/09/2022,09:44:55,0.233,1.0,0.397,0.003
29/09/2022,09:45:56,0.272,1.0,0.401,0.004
29/09/2022,09:46:56,0.314,1.0,0.406,0.005
29/09/2022,09:47:56,0.338,1.0,0.412,0.006
29/09/2022,09:48:55,0.344,1.0,0.418,0.006
29/09/2022,09:49:56,0.345,1.0,0.423,0.005
29/09/2022,09:50:56,0.344,1.0,0.429,0.006
29/09/2022,09:51:56,0.336,1.0,0.435,0.006
29/09/2022,09:52:55,0.324,1.0,0.44,0.005
29/09/2022,09:53:56,0.315,1.0,0.446,0.006
29/09/2022,09:54:55,0.303,1.0,0.451,0.005
29/09/2022,09:55:56,0.302,1.0,0.456,0.005
29/09/2022,09:56:56,0.324,1.0,0.461,0.005
29/09/2022,09:57:56,0.349,1.0,0.466,0.005
29/09/2022,09:58:55,0.357,1.0,0.472,0.006
29/09/2022,09:59:55,0.355,1.0,0.478,0.006
29/09/2022,10:00:56,0.335,1.0,0.484,0.006
29/09/2022,10:01:56,0.368,1.0,0.49,0.006
29/09/2022,10:02:56,0.399,1.0,0.496,0.006
29/09/2022,10:03:56,0.396,1.0,0.503,0.007
29/09/2022,10:04:55,0.400,1.0,0.51,0.007
29/09/2022,10:05:55,0.435,1.0,0.517,0.007